Location: Asheville, NC
(35.6000°N, 82.5500°W)
Time: 03:48:45
(UTC-05:00)

Vanguard 3 - Pass Details

Date: 14 December 2017
Orbit: 508 x 3264 km, 33.4° (Epoch: 20 January)

Event Time Altitude Azimuth Distance (km) Brightness Sun altitude
Rises 14:46:06 0° 267° (W) 2,750 10.4 22.4°
Reaches altitude 10° 14:48:25 10° 264° (W) 1,751 9.6 22.1°
Maximum altitude 14:52:05 62° 184° (S) 570 7.2 21.6°
Drops below altitude 10° 14:55:58 10° 102° (ESE) 1,852 8.8 21.2°
Sets 14:58:29 0° 99° (E) 2,934 9.8 20.9°
